Temp
-8 -8 -8 -8 -8 -8 -9 -9 -9 -9 -10 -10 -10 -10 -11 -11 -11 -11 -11 -11 -11 -11 -11 -11 -11 -11 -10 -11 -11 -11 -10 -10 -10 -10 -10 -10 -10 -10 -10 -10 -9 -9 -9 -8 -10
-8 -8 -8 -9 -9 -9 -9 -9 -9 -10 -10 -10 -10 -10 -10 -11 -11 -12 -12 -12 -11 -11 -11 -11 -11 -11 -11 -11 -11 -11 -10 -10 -11 -11 -10 -10 -10 -10 -10 -10 -10 -10 -10 -9 -10
-8 -9 -8 -9 -9 -9 -9 -9 -9 -10 -10 -10 -10 -10 -10 -11 -11 -12 -13 -12 -12 -12 -12 -12 -12 -12 -12 -12 -12 -12 -11 -11 -11 -11 -11 -10 -10 -11 -10 -10 -10 -10 -10 -10 -10
-8 -9 -9 -9 -9 -9 -9 -9 -10 -10 -10 -10 -10 -10 -10 -10 -11 -12 -12 -12 -12 -12 -13 -13 -13 -12 -12 -12 -12 -12 -11 -12 -12 -12 -11 -11 -11 -11 -11 -11 -11 -10 -10 -10 -10
-9 -9 -9 -9 -9 -9 -9 -10 -10 -10 -10 -10 -10 -10 -10 -10 -12 -12 -12 -12 -12 -12 -13 -13 -13 -13 -13 -13 -12 -12 -12 -12 -12 -12 -12 -12 -11 -12 -11 -11 -12 -11 -11 -10 -10
-9 -9 -9 -9 -9 -10 -10 -10 -10 -10 -10 -10 -10 -10 -10 -10 -12 -13 -13 -12 -13 -13 -13 -13 -13 -13 -13 -13 -13 -13 -13 -13 -13 -12 -12 -12 -12 -12 -11 -12 -12 -11 -11 -11 -11
-10 -10 -10 -10 -9 -10 -10 -10 -10 -10 -10 -11 -11 -11 -10 -11 -12 -13 -13 -13 -14 -14 -14 -14 -14 -14 -14 -14 -13 -13 -13 -13 -12 -13 -13 -13 -12 -12 -12 -12 -12 -12 -11 -12 -11
-10 -10 -10 -10 -10 -10 -10 -10 -10 -11 -11 -11 -12 -12 -11 -11 -12 -13 -14 -14 -16 -15 -15 -16 -15 -15 -15 -14 -14 -13 -13 -13 -12 -13 -13 -13 -11 -13 -13 -13 -13 -12 -12 -12 -12
-10 -10 -10 -10 -10 -10 -11 -11 -11 -12 -12 -12 -12 -13 -12 -12 -13 -13 -14 -15 -16 -17 -17 -17 -17 -16 -16 -15 -15 -14 -13 -13 -13 -13 -13 -13 -12 -13 -13 -14 -13 -13 -12 -12 -12
-11 -11 -11 -11 -11 -11 -11 -12 -12 -12 -12 -13 -13 -13 -14 -15 -14 -15 -16 -16 -17 -17 -17 -18 -17 -17 -16 -16 -15 -14 -14 -14 -13 -13 -14 -14 -13 -14 -14 -14 -14 -13 -13 -12 -12
-11 -12 -12 -12 -12 -12 -12 -12 -12 -12 -12 -13 -14 -14 -15 -15 -15 -16 -17 -17 -18 -17 -17 -18 -18 -18 -17 -17 -16 -17 -16 -16 -15 -15 -15 -14 -14 -14 -15 -14 -14 -14 -13 -13 -12
-12 -12 -12 -12 -12 -13 -13 -13 -12 -12 -11 -13 -13 -14 -14 -15 -16 -19 -20 -20 -21 -20 -20 -20 -19 -18 -17 -17 -18 -17 -17 -16 -16 -16 -16 -15 -13 -15 -15 -14 -14 -14 -14 -13 -13
-13 -13 -13 -13 -13 -13 -13 -13 -13 -13 -14 -14 -14 -15 -17 -18 -19 -20 -21 -23 -22 -22 -22 -21 -20 -19 -20 -20 -21 -18 -17 -16 -17 -18 -16 -16 -15 -14 -15 -15 -15 -14 -14 -14 -14
-13 -13 -13 -13 -13 -14 -14 -14 -14 -14 -15 -18 -17 -18 -19 -21 -22 -24 -25 -26 -26 -25 -24 -24 -21 -22 -21 -21 -21 -20 -18 -18 -19 -19 -18 -18 -16 -16 -16 -15 -15 -15 -15 -14 -14
-14 -14 -14 -14 -14 -14 -14 -15 -15 -17 -18 -20 -21 -22 -22 -24 -24 -26 -28 -27 -26 -26 -25 -25 -24 -23 -23 -21 -21 -21 -20 -20 -20 -20 -21 -20 -18 -14 -16 -16 -15 -15 -15 -15 -15
-14 -14 -14 -14 -15 -15 -15 -16 -18 -19 -21 -22 -23 -24 -25 -28 -29 -29 -29 -28 -27 -27 -26 -25 -25 -25 -24 -23 -23 -22 -22 -22 -21 -21 -21 -19 -19 -14 -16 -16 -17 -16 -16 -16 -16
-15 -15 -15 -15 -15 -15 -17 -19 -20 -21 -23 -25 -26 -28 -29 -30 -31 -30 -30 -29 -28 -27 -27 -25 -25 -25 -24 -24 -24 -23 -22 -23 -22 -22 -21 -19 -21 -17 -17 -16 -17 -17 -17 -17 -17
-15 -15 -15 -15 -16 -17 -19 -20 -22 -24 -26 -28 -30 -31 -33 -33 -32 -32 -31 -31 -29 -28 -27 -26 -26 -25 -25 -24 -24 -22 -23 -22 -22 -21 -21 -21 -20 -16 -18 -18 -17 -17 -18 -17 -17
-16 -16 -15 -16 -17 -19 -20 -22 -25 -27 -30 -32 -33 -34 -34 -34 -34 -33 -33 -32 -31 -28 -28 -27 -25 -24 -24 -24 -24 -23 -24 -22 -22 -21 -22 -22 -20 -19 -19 -18 -19 -19 -18 -17 -17
-16 -15 -16 -17 -19 -20 -22 -25 -28 -30 -33 -34 -34 -34 -34 -34 -34 -34 -33 -33 -32 -30 -28 -28 -25 -25 -24 -23 -23 -23 -23 -23 -22 -22 -22 -22 -22 -22 -22 -20 -19 -19 -17 -18 -17
-16 -16 -17 -19 -20 -22 -25 -27 -30 -33 -34 -34 -34 -34 -34 -34 -34 -34 -34 -34 -33 -31 -30 -28 -27 -25 -25 -24 -24 -24 -23 -23 -22 -22 -22 -22 -22 -22 -22 -20 -19 -18 -18 -18 -18
-16 -17 -19 -20 -22 -25 -27 -30 -33 -34 -35 -35 -34 -34 -34 -34 -34 -35 -35 -34 -34 -32 -30 -28 -27 -26 -25 -25 -24 -24 -24 -23 -23 -22 -22 -22 -22 -22 -20 -20 -19 -19 -19 -19 -18
-17 -19 -19 -21 -24 -26 -29 -32 -34 -34 -35 -35 -35 -35 -35 -35 -35 -35 -35 -35 -34 -33 -30 -28 -28 -26 -25 -25 -24 -24 -24 -24 -23 -23 -23 -23 -23 -21 -21 -20 -20 -20 -20 -19 -18
-19 -20 -21 -23 -27 -30 -32 -33 -35 -35 -35 -35 -35 -35 -35 -35 -35 -35 -35 -35 -34 -34 -31 -29 -28 -26 -27 -26 -25 -25 -23 -23 -23 -23 -23 -22 -23 -22 -21 -21 -21 -20 -20 -20 -19
-20 -21 -22 -25 -28 -31 -33 -35 -35 -35 -35 -35 -35 -35 -35 -35 -35 -35 -35 -35 -34 -34 -32 -30 -29 -27 -27 -27 -25 -25 -24 -24 -23 -23 -23 -23 -23 -24 -23 -21 -21 -20 -20 -20 -19
-21 -22 -23 -28 -30 -32 -34 -35 -35 -35 -35 -35 -35 -35 -35 -35 -35 -35 -35 -35 -34 -34 -33 -30 -29 -28 -28 -27 -25 -24 -24 -24 -23 -23 -23 -23 -23 -22 -22 -22 -20 -20 -20 -20 -19
-22 -24 -26 -29 -32 -34 -35 -35 -35 -36 -35 -35 -35 -35 -36 -36 -35 -35 -34 -34 -33 -33 -33 -31 -29 -28 -28 -28 -27 -25 -24 -24 -24 -23 -23 -23 -23 -23 -22 -21 -21 -20 -20 -20 -20
Height
5797 5793 5790 5786 5783 5781 5777 5774 5770 5766 5763 5761 5758 5756 5753 5752 5752 5751 5751 5749 5747 5748 5748 5747 5746 5746 5747 5748 5748 5748 5748 5751 5755 5756 5757 5757 5759 5759 5762 5766 5765 5767 5769 5772 5779
5791 5788 5785 5782 5778 5775 5772 5768 5764 5761 5757 5755 5752 5750 5747 5747 5747 5748 5745 5742 5739 5737 5739 5739 5738 5737 5738 5739 5738 5738 5741 5742 5746 5747 5746 5747 5752 5752 5755 5757 5758 5760 5763 5764 5769
5788 5784 5781 5777 5773 5770 5766 5764 5760 5756 5751 5748 5744 5742 5740 5737 5736 5741 5737 5733 5731 5730 5728 5728 5728 5728 5728 5727 5729 5730 5732 5734 5734 5737 5737 5738 5742 5743 5745 5748 5750 5751 5755 5758 5761
5783 5780 5776 5771 5768 5763 5759 5756 5752 5747 5744 5740 5737 5733 5731 5726 5727 5727 5725 5723 5721 5718 5716 5715 5715 5714 5716 5715 5717 5718 5721 5722 5724 5725 5727 5729 5730 5734 5736 5739 5739 5742 5745 5748 5754
5778 5774 5769 5765 5761 5756 5752 5748 5744 5739 5735 5730 5726 5722 5719 5716 5721 5708 5709 5708 5706 5705 5704 5701 5699 5698 5699 5703 5701 5702 5706 5710 5710 5714 5716 5715 5720 5723 5726 5729 5731 5732 5735 5738 5744
5773 5769 5763 5758 5753 5748 5743 5740 5734 5730 5724 5719 5714 5710 5707 5706 5700 5695 5691 5690 5688 5688 5687 5685 5684 5683 5682 5682 5685 5689 5691 5694 5696 5699 5701 5702 5706 5710 5717 5718 5721 5723 5726 5728 5732
5765 5761 5756 5750 5745 5739 5733 5728 5722 5719 5713 5706 5700 5695 5695 5693 5682 5676 5671 5668 5668 5667 5667 5667 5665 5662 5667 5664 5669 5670 5672 5677 5683 5683 5685 5685 5692 5698 5705 5706 5709 5713 5715 5719 5722
5757 5753 5747 5741 5734 5729 5725 5717 5710 5705 5699 5692 5686 5680 5678 5673 5666 5659 5653 5651 5647 5646 5647 5645 5643 5642 5644 5644 5648 5651 5652 5658 5670 5666 5670 5670 5683 5682 5687 5693 5699 5702 5705 5709 5713
5748 5743 5738 5731 5725 5719 5713 5706 5699 5693 5685 5677 5672 5662 5659 5653 5647 5638 5633 5630 5626 5627 5627 5627 5621 5620 5621 5625 5626 5631 5639 5643 5646 5647 5649 5651 5668 5669 5669 5678 5684 5688 5692 5696 5701
5738 5733 5726 5719 5712 5706 5699 5693 5686 5680 5670 5659 5652 5644 5639 5628 5623 5618 5607 5604 5602 5600 5601 5602 5594 5592 5598 5601 5605 5621 5618 5621 5628 5632 5630 5637 5653 5650 5656 5661 5669 5674 5677 5683 5688
5727 5721 5713 5705 5696 5689 5684 5677 5671 5664 5653 5639 5624 5617 5605 5597 5595 5592 5576 5571 5567 5565 5570 5570 5560 5562 5582 5590 5602 5595 5598 5606 5616 5612 5611 5621 5630 5632 5636 5643 5649 5656 5662 5667 5675
5715 5710 5701 5692 5683 5675 5666 5655 5646 5638 5635 5618 5600 5583 5575 5566 5567 5556 5544 5539 5534 5533 5538 5533 5523 5554 5570 5574 5566 5576 5579 5588 5597 5596 5595 5603 5612 5612 5621 5629 5634 5640 5647 5653 5659
5703 5696 5687 5677 5666 5656 5646 5634 5621 5610 5597 5595 5577 5558 5544 5533 5529 5523 5512 5505 5503 5502 5507 5502 5515 5532 5533 5537 5543 5552 5562 5580 5583 5579 5579 5585 5591 5599 5607 5612 5619 5625 5633 5639 5645
5690 5681 5670 5662 5650 5637 5625 5611 5596 5581 5567 5552 5540 5531 5518 5502 5494 5482 5480 5478 5478 5479 5482 5476 5496 5497 5506 5510 5526 5532 5552 5559 5561 5563 5566 5568 5573 5580 5593 5600 5604 5612 5616 5625 5632
5676 5666 5655 5639 5632 5617 5604 5588 5570 5552 5536 5524 5508 5502 5493 5478 5461 5468 5459 5462 5460 5462 5464 5468 5472 5476 5481 5495 5512 5520 5538 5542 5545 5547 5552 5555 5558 5580 5576 5586 5592 5596 5604 5611 5618
5661 5650 5638 5624 5609 5596 5579 5562 5547 5533 5516 5497 5488 5473 5466 5457 5442 5434 5442 5443 5446 5448 5450 5454 5458 5462 5470 5485 5493 5511 5517 5525 5533 5536 5532 5546 5548 5562 5564 5575 5579 5583 5593 5598 5604
5647 5633 5620 5608 5593 5573 5553 5536 5523 5505 5487 5475 5461 5448 5445 5434 5426 5426 5425 5430 5431 5434 5438 5440 5448 5456 5465 5469 5478 5491 5504 5512 5516 5517 5520 5536 5532 5549 5553 5559 5567 5572 5577 5585 5592
5631 5619 5605 5589 5570 5552 5533 5518 5501 5482 5468 5456 5445 5440 5434 5425 5422 5418 5421 5419 5420 5421 5428 5434 5441 5448 5457 5462 5472 5481 5490 5499 5502 5508 5517 5521 5524 5540 5543 5546 5553 5561 5567 5574 5581
5618 5604 5587 5569 5550 5530 5513 5498 5479 5465 5452 5444 5438 5433 5430 5425 5420 5416 5417 5413 5412 5414 5424 5427 5433 5436 5445 5455 5464 5472 5474 5497 5501 5503 5506 5513 5521 5529 5532 5534 5542 5551 5559 5565 5571
5607 5589 5571 5550 5531 5512 5493 5477 5465 5452 5445 5441 5436 5432 5426 5422 5418 5415 5413 5409 5406 5408 5417 5424 5426 5432 5437 5450 5457 5466 5481 5482 5486 5491 5498 5507 5514 5521 5521 5526 5531 5541 5548 5555 5560
5590 5570 5552 5533 5514 5494 5477 5463 5453 5445 5441 5438 5433 5429 5425 5420 5417 5413 5411 5408 5402 5405 5413 5419 5420 5428 5435 5442 5448 5459 5465 5471 5477 5485 5492 5503 5510 5515 5516 5520 5525 5530 5537 5543 5550
5577 5556 5533 5515 5501 5479 5467 5453 5445 5440 5437 5434 5430 5426 5422 5418 5414 5411 5408 5405 5401 5401 5408 5415 5417 5423 5431 5437 5445 5454 5459 5467 5472 5482 5489 5496 5501 5505 5509 5513 5516 5521 5528 5534 5542
5562 5541 5524 5502 5484 5468 5456 5447 5441 5437 5434 5430 5426 5423 5420 5416 5411 5409 5405 5403 5399 5398 5403 5410 5416 5422 5428 5435 5440 5445 5450 5457 5466 5473 5478 5487 5497 5499 5503 5506 5509 5517 5522 5529 5535
5542 5525 5509 5485 5468 5455 5446 5441 5437 5434 5430 5426 5423 5420 5416 5413 5409 5405 5403 5401 5397 5396 5399 5405 5412 5415 5421 5426 5431 5439 5446 5454 5460 5469 5477 5486 5493 5493 5499 5504 5506 5512 5518 5524 5529
5527 5510 5488 5476 5461 5450 5442 5435 5433 5430 5427 5423 5421 5417 5412 5408 5404 5401 5398 5395 5394 5392 5393 5399 5405 5410 5418 5424 5428 5437 5445 5452 5460 5466 5475 5482 5485 5489 5490 5495 5503 5507 5512 5519 5525
5514 5496 5479 5465 5451 5443 5436 5434 5429 5426 5423 5421 5415 5411 5408 5404 5400 5395 5392 5391 5389 5389 5387 5395 5401 5407 5416 5423 5426 5436 5444 5449 5455 5464 5470 5476 5480 5484 5486 5489 5494 5503 5508 5514 5520
5499 5483 5465 5457 5448 5439 5434 5429 5425 5421 5421 5416 5411 5406 5403 5400 5396 5393 5388 5387 5387 5387 5387 5391 5398 5406 5416 5422 5427 5436 5440 5446 5454 5459 5465 5471 5471 5474 5480 5487 5494 5499 5506 5510 5515
Wind_Speed
27 29 29 30 32 34 35 35 36 35 35 35 35 33 32 32 33 33 30 34 34 31 34 35 37 37 39 38 38 40 41 39 36 37 38 39 36 37 35 34 38 37 38 39 40
25 28 29 29 30 33 36 35 35 36 35 37 37 36 35 34 32 32 36 35 38 39 38 40 42 43 43 43 43 44 44 43 41 41 44 45 40 40 39 38 38 38 38 39 40
28 29 31 33 33 36 39 41 40 39 37 37 38 38 40 42 40 33 38 43 46 47 46 46 47 48 49 49 48 49 48 48 48 46 48 48 44 43 42 41 40 38 38 40 40
32 34 35 36 38 36 39 42 43 44 43 45 47 47 46 45 48 44 46 48 50 53 54 53 54 54 54 56 53 55 53 53 53 50 49 49 49 46 46 43 45 42 40 41 41
33 34 36 36 36 41 43 45 47 48 49 49 50 52 52 52 45 53 52 54 55 57 58 59 61 61 61 59 61 60 58 55 57 55 55 55 52 49 48 47 46 47 44 44 42
35 36 38 40 42 43 46 48 51 53 54 57 57 59 60 63 53 53 56 58 59 60 60 64 66 67 68 68 67 65 63 61 61 60 60 60 57 55 52 50 49 51 47 47 45
41 40 41 44 45 48 50 53 56 57 59 61 62 65 65 64 70 69 69 69 66 61 61 60 62 66 67 72 72 72 71 67 66 64 64 64 62 57 55 54 52 52 53 49 49
45 46 47 48 50 52 53 57 61 63 64 65 67 70 69 71 74 77 78 77 68 70 67 61 60 62 63 66 68 71 75 75 71 70 67 68 62 64 61 60 55 54 55 53 52
50 53 53 53 55 56 58 60 64 64 67 69 73 77 79 81 81 84 85 82 77 70 65 62 62 64 66 64 66 65 66 65 68 71 72 73 64 66 65 60 59 58 58 59 55
57 56 57 57 58 59 62 64 67 68 72 76 79 84 84 85 88 87 86 85 81 78 74 70 72 71 69 70 69 63 63 64 63 65 68 66 59 65 63 63 61 61 61 61 62
60 60 60 62 64 65 67 69 72 75 79 85 91 93 93 95 95 94 91 86 85 86 84 78 79 78 70 66 58 67 66 64 58 61 65 63 60 62 63 62 64 64 64 63 62
61 61 60 64 68 72 75 78 82 87 87 94 101 105 108 109 103 85 82 80 72 74 69 78 87 77 73 67 70 65 64 60 59 62 64 62 63 63 61 62 62 63 63 63 62
63 62 65 68 73 78 82 86 91 97 101 100 108 113 106 102 92 86 78 69 67 64 65 81 77 71 76 73 61 69 72 60 58 60 65 64 64 63 57 59 61 62 61 62 61
65 65 71 74 80 84 88 94 100 105 107 102 103 96 95 89 83 73 59 51 50 51 64 73 65 81 83 80 72 66 63 60 60 60 62 61 66 63 56 54 58 60 59 61 60
66 72 76 81 85 90 95 101 106 107 110 87 88 88 81 72 71 53 48 43 37 41 33 49 58 69 72 78 71 67 51 51 54 56 50 50 59 59 60 54 56 59 59 58 56
72 77 81 86 91 97 103 107 107 103 95 86 83 77 63 49 52 58 43 38 39 42 47 28 20 39 53 56 61 51 60 59 49 48 53 51 58 61 60 54 52 55 52 53 51
78 82 86 91 97 104 107 107 104 101 90 81 73 59 43 38 40 42 48 43 38 29 40 39 42 33 30 36 47 54 50 48 50 54 54 46 54 58 57 53 48 50 51 49 47
83 85 90 97 103 106 106 103 97 86 73 62 49 37 24 27 25 23 19 29 47 46 24 31 34 27 33 36 32 44 48 48 50 49 47 51 44 53 50 52 49 36 37 43 47
84 90 97 102 106 105 104 96 83 70 57 41 31 24 22 19 23 22 5 21 39 46 31 31 25 22 28 31 29 31 53 40 40 29 44 46 52 54 51 51 48 40 38 38 46
88 95 101 104 102 102 96 84 65 50 35 26 25 22 24 22 23 20 9 18 25 35 37 22 28 34 26 27 30 34 33 45 52 49 34 31 32 33 26 30 35 33 42 41 44
94 101 103 101 100 96 83 69 50 33 24 22 22 22 21 22 23 20 13 16 24 24 25 23 27 15 32 32 30 37 34 41 43 49 32 28 28 29 30 31 28 33 39 44 44
98 99 101 99 94 84 68 53 35 23 19 23 24 25 24 27 22 19 16 14 18 20 26 23 23 21 25 24 31 27 39 39 43 47 48 38 35 31 30 26 33 33 34 38 40
98 98 99 95 85 76 55 39 22 19 21 21 21 21 24 25 25 20 17 21 16 15 26 29 22 27 27 30 31 32 31 36 38 41 42 42 32 30 24 24 29 31 34 33 36
96 96 95 86 77 59 43 24 18 19 22 21 22 21 21 24 21 21 19 19 17 14 17 38 31 32 21 24 38 36 35 32 33 32 34 30 33 35 26 34 26 32 35 30 33
94 93 92 82 64 47 34 22 19 18 19 21 19 26 29 31 22 20 20 20 14 14 18 33 34 32 17 14 36 39 35 38 36 36 30 22 21 23 32 43 34 33 34 30 30
92 91 88 69 51 39 29 20 18 17 23 26 32 31 28 26 24 25 21 16 13 12 19 26 28 36 21 12 27 40 30 39 38 29 32 25 23 21 25 29 34 37 34 30 28
89 85 79 61 44 30 23 24 20 21 17 22 27 27 26 25 25 22 22 15 11 12 18 22 28 31 28 10 16 29 30 35 28 30 28 28 26 30 35 34 26 27 29 24 22
Wind_Direction
314 313 314 316 315 312 308 307 301 296 295 294 293 293 294 290 280 275 275 272 272 266 263 260 256 253 253 250 248 247 247 248 243 244 249 248 248 251 251 247 246 246 243 247 236
323 323 324 323 324 322 318 311 305 299 297 296 296 295 293 291 286 280 276 269 269 266 261 260 261 259 255 252 248 247 250 250 246 247 249 251 252 252 252 250 247 248 246 245 240
325 324 323 324 325 326 320 316 310 307 304 299 296 295 292 287 281 276 270 270 268 270 268 265 261 259 257 254 251 249 251 248 249 248 251 254 253 251 249 246 245 243 244 244 244
323 325 322 321 321 318 313 311 310 307 308 307 303 299 295 289 288 282 271 267 266 266 266 266 265 261 259 256 254 253 252 253 252 251 253 255 255 252 249 246 245 242 242 241 244
318 318 316 317 314 311 311 310 310 308 309 306 305 302 298 295 294 286 281 276 269 263 262 262 261 261 260 260 256 251 251 251 254 255 256 256 255 255 251 248 247 243 241 238 236
314 314 313 311 310 309 306 308 306 305 306 305 303 300 297 300 296 289 285 280 276 272 268 263 260 260 257 256 256 257 253 252 252 254 254 256 256 255 255 253 251 247 242 241 237
312 312 309 307 305 302 304 306 301 302 301 300 301 300 295 300 297 296 293 291 288 283 276 271 267 262 260 258 256 256 256 253 254 253 254 255 255 258 256 253 253 249 245 242 241
310 308 306 304 300 300 303 303 302 302 301 302 302 299 295 294 294 293 292 289 288 285 282 275 267 261 258 256 255 254 255 255 255 253 254 255 256 255 253 254 253 253 249 245 242
307 307 307 303 299 298 299 298 298 299 300 299 298 296 295 292 290 288 287 286 284 281 278 272 265 256 250 249 248 249 257 258 254 255 253 252 254 254 255 249 251 250 248 245 242
308 308 307 306 304 301 300 299 300 300 299 299 297 295 293 292 291 290 288 285 282 278 273 270 261 251 248 246 252 264 252 248 249 251 255 255 250 254 253 254 250 248 247 243 242
307 306 307 307 305 305 301 300 299 299 300 303 301 298 295 294 295 296 292 288 282 276 273 267 251 250 254 255 258 255 253 250 247 254 254 247 243 247 248 246 245 242 242 240 240
306 307 307 306 306 305 305 305 306 304 301 301 300 300 298 299 299 299 292 286 276 273 266 253 250 260 259 251 251 247 249 249 249 251 252 249 241 245 245 244 244 242 240 239 239
309 309 307 307 308 310 310 309 307 305 304 302 300 301 306 304 304 298 291 281 273 264 256 249 251 249 241 239 241 242 245 247 249 251 252 250 245 245 246 245 243 240 240 238 239
310 309 310 311 311 311 311 310 309 308 307 309 307 308 306 305 300 293 285 277 269 257 249 252 243 245 242 239 237 239 241 242 243 245 249 249 247 245 244 244 241 240 239 237 239
311 313 313 313 313 313 312 311 310 311 312 310 310 309 307 300 296 279 269 243 245 244 249 258 252 247 243 241 239 240 234 242 240 245 244 244 247 234 243 241 241 239 238 238 240
314 314 315 315 315 314 313 313 314 315 315 310 311 309 304 291 276 275 258 252 242 250 239 239 245 246 248 240 240 229 227 234 236 239 240 237 244 232 241 238 237 241 239 241 240
316 316 317 317 316 316 316 317 318 318 315 314 313 310 310 289 283 274 267 250 243 251 233 235 246 238 236 239 225 228 225 220 229 231 236 236 242 239 242 242 237 237 240 239 239
318 318 319 318 318 318 319 320 319 319 316 315 315 319 323 314 308 299 303 264 247 247 234 242 245 242 237 233 231 224 217 213 227 227 225 232 227 237 242 242 241 238 236 237 239
319 320 319 320 320 321 321 322 322 320 318 319 324 329 325 324 313 308 304 296 258 247 246 245 196 209 228 208 211 214 213 206 210 233 231 231 229 237 242 248 251 248 238 235 236
321 321 322 321 323 323 323 324 323 319 321 322 327 330 325 325 327 332 313 280 263 256 238 252 213 207 211 210 199 203 208 210 216 231 223 229 232 241 252 256 253 229 227 226 229
323 323 323 324 324 325 327 326 323 317 323 316 323 325 334 330 322 324 318 314 283 256 237 235 234 190 197 203 194 198 203 212 220 221 217 225 239 241 249 242 247 218 219 221 224
325 325 325 326 327 328 328 327 324 323 323 312 316 317 322 326 323 314 317 317 298 271 220 223 232 224 206 206 213 188 211 220 223 222 226 234 226 226 243 242 219 214 215 220 218
326 326 326 328 328 329 330 330 322 321 329 323 316 324 324 324 316 317 311 318 299 276 223 212 209 213 193 205 214 210 209 207 217 217 219 225 226 232 242 225 218 216 211 215 217
328 328 329 331 331 332 332 329 304 317 324 319 324 326 325 325 314 307 309 302 301 286 236 213 213 205 208 189 198 196 208 212 209 217 220 225 226 235 224 209 199 205 212 214 216
330 330 331 332 334 333 336 327 327 320 317 314 314 318 320 326 314 306 295 302 303 288 251 219 227 209 199 205 183 189 205 212 215 216 213 210 216 216 233 195 192 194 208 212 215
332 332 332 336 335 335 336 323 318 287 303 309 311 311 313 313 312 308 300 295 284 256 265 226 226 224 202 213 184 193 195 196 215 205 213 212 214 215 237 227 194 194 197 204 212
333 333 332 338 336 331 322 326 320 309 314 321 323 315 311 308 308 309 303 303 278 263 253 253 226 225 222 209 187 201 204 198 201 207 216 219 227 219 209 220 209 202 211 214 220